This demonstration page uses our WeatherBlox Daily Observations layout. Learn more.

Left ArrowRight Arrow

30.21309, -93.2044

Hourly Observations for February 26, 2022

Temp ( °F °C ) Dew Point ( °F °C ) Humidity (%) Winds ( mph kmh ) Pressure ( in mb ) Visibility ( mi km ) Precip ( " mm )
12:15 am 00:15 Cloudy 41 4.8 38 3.5 91 91 NE 9 15 30.37 1028 10 16 0.00 0.00
12:35 am 00:35 Cloudy 41 4.8 38 3.3 90 90 NNE 7 11 30.37 1028 10 16 0.00 0.00
12:55 am 00:55 Cloudy 41 5 38 3.2 88 88 NE 6 9 30.36 1028 10 16 0.00 0.00
1:15 am 01:15 Cloudy 41 5.1 37 2.8 85 85 NE 9 15 30.35 1028 10 16 0.00 0.00
1:35 am 01:35 Cloudy 41 5.2 37 2.7 84 84 ENE 10 17 30.34 1027 10 16 0.00 0.00
1:55 am 01:55 Cloudy 42 5.3 37 2.5 82 82 ENE 12 19 30.34 1027 10 16 0.00 0.00
2:15 am 02:15 Cloudy 42 5.3 36 2.3 81 81 NE 10 17 30.34 1027 10 16 0.00 0.00
2:35 am 02:35 Cloudy 41 5.2 36 2.2 81 81 NNE 7 11 30.34 1027 10 16 0.00 0.00
2:55 am 02:55 Cloudy 42 5.3 36 2.3 81 81 NNE 6 9 30.34 1027 10 16 0.00 0.00
3:15 am 03:15 Cloudy 41 5 36 2 81 81 NNE 10 17 30.33 1027 10 16 0.00 0.00
3:35 am 03:35 Cloudy 41 4.9 37 2.6 85 85 NE 8 13 30.32 1027 10 16 0.00 0.00
3:55 am 03:55 Cloudy 41 4.8 37 2.6 86 86 N 6 9 30.34 1027 10 16 0.00 0.00
4:15 am 04:15 Cloudy 41 4.8 37 2.6 86 86 NNE 7 11 30.34 1027 10 16 0.00 0.00
4:35 am 04:35 Cloudy 41 4.9 37 2.6 85 85 N 9 15 30.33 1027 10 16 0.00 0.00
4:55 am 04:55 Cloudy 41 4.9 37 2.5 85 85 N 6 9 30.34 1027 10 16 0.00 0.00
5:15 am 05:15 Cloudy 40 4.7 36 2.4 85 85 NNE 9 15 30.33 1027 10 16 0.00 0.00
5:35 am 05:35 Cloudy 40 4.7 36 2.3 85 85 NE 10 17 30.33 1027 10 16 0.00 0.00
6:00 am 06:00 Cloudy 41 5 36 2 81 81 NE 10 17 30.33 1027 10 16 0.00 0.00
6:55 am 06:55 Cloudy 39 4 37 3 93 93 NE 12 19 30.34 1027 10 16 0.00 0.00
7:54 am 07:54 Cloudy 39 4 37 3 93 93 NNE 10 17 30.36 1028 10 16 0.00 0.00
8:55 am 08:55 Cloudy 41 5 37 3 87 87 NNE 12 19 30.36 1028 10 16 0.00 0.00
9:54 am 09:54 Cloudy 43 6 37 3 81 81 NNE 12 19 30.38 1029 10 16 0.00 0.00
10:55 am 10:55 Cloudy 43 6 37 3 81 81 NNE 8 13 30.38 1029 10 16 0.00 0.00
11:55 am 11:55 Cloudy 43 6 37 3 81 81 NNE 9 15 30.37 1028 10 16 0.00 0.00
12:47 pm 12:47 Cloudy 43 6 37 3 81 81 NE 7 11 30.33 1027 10 16 0.00 0.00
1:54 pm 13:54 Cloudy 45 7 39 4 81 81 NNE 9 15 30.30 1026 10 16 0.00 0.00
2:45 pm 14:45 Cloudy 45 7 39 4 81 81 NNE 12 19 30.27 1025 10 16 0.00 0.00
3:45 pm 15:45 Cloudy 45 7 39 4 81 81 NNE 12 19 30.25 1024 10 16 0.00 0.00
4:45 pm 16:45 Cloudy 45 7 39 4 81 81 ENE 9 15 30.25 1024 10 16 0.00 0.00
6:45 pm 18:45 Cloudy with Haze 45 7 41 5 87 87 N 8 13 30.27 1025 7 11 0.00 0.00
7:45 pm 19:45 Cloudy 43 6 39 4 87 87 N 8 13 30.28 1025 10 16 0.00 0.00
8:45 pm 20:45 Cloudy 43 6 39 4 87 87 N 8 13 30.29 1026 10 16 0.00 0.00
9:45 pm 21:45 Cloudy 43 6 39 4 87 87 N 8 13 30.29 1026 10 16 0.00 0.00
10:15 pm 22:15 Cloudy 43 6.1 40 4.4 89 89 N 6 9 30.28 1025 10 16 0.00 0.00
10:35 pm 22:35 Cloudy 43 6.1 40 4.6 90 90 N 7 11 30.28 1025 10 16 0.00 0.00
10:55 pm 22:55 Cloudy 43 6.1 40 4.5 90 90 N 8 13 30.27 1025 10 16 0.00 0.00
11:15 pm 23:15 Cloudy 43 6.2 40 4.5 89 89 N 9 15 30.27 1025 10 16 0.00 0.00
11:35 pm 23:35 Cloudy 43 6.1 40 4.6 90 90 N 9 15 30.27 1025 10 16 0.00 0.00
11:55 pm 23:55 Cloudy 43 6.1 40 4.6 90 90 N 10 17 30.28 1025 10 16 0.00 0.00

Powered by AerisWeather